Powrót do katalogu

CZ-6A DEB

AktywnySSO
NORAD 55862·DEBRIS·🇨🇳 China

Wystrzelony Nov 11, 2022 z Taiyuan Satellite Launch Center

Loading…

Następne Przeloty (najbliższe 24 godziny)

TLE

ŚwieżeSource: Space-Track

Epoka: Sep 14, 2026, 00:05 UTC

1 55862U 22151ZJ  26257.00352989  .00001580  00000-0  63314-3 0  9999
2 55862  98.7460 281.4677 0003884 121.8794 238.2766 14.29736549193065

Śledź CZ-6A DEB w czasie rzeczywistym z AllMySat

Download on the App Store